Date,TemperatureHighF,TemperatureAvgF,TemperatureLowF,DewpointHighF,DewpointAvgF,DewpointLowF,HumidityHigh,HumidityAvg,HumidityLow,PressureMaxIn,PressureMinIn,WindSpeedMaxMPH,WindSpeedAvgMPH,GustSpeedMaxMPH,PrecipitationSumIn
2013-1-1,78.7,64.2,50.3,62.8,57.1,48.4,96,80,55,30.21,30.02,16,2,16,0.00
2013-1-2,80.8,66.9,53.9,67.8,61.6,51.8,96,84,60,30.05,29.95,13,2,13,0.01
2013-1-3,73.7,64.0,57.3,67.0,61.6,54.9,96,92,78,30.17,30.02,13,1,14,0.08
2013-1-4,58.3,56.5,53.7,57.2,55.2,52.3,98,95,94,30.27,30.15,13,3,15,0.26
2013-1-5,72.6,61.6,52.1,62.3,55.9,48.7,94,82,66,30.30,30.18,11,3,11,0.00
2013-1-6,80.1,67.5,60.5,68.7,62.8,57.3,95,86,67,30.20,30.03,14,1,15,0.01
2013-1-7,68.2,61.4,54.8,59.9,56.8,49.6,94,85,67,30.22,30.11,13,4,13,0.03
2013-1-8,83.1,70.2,60.5,71.0,65.7,58.8,96,87,63,30.22,30.11,9,2,9,0.03
2013-1-9,82.5,74.1,67.9,72.0,69.3,66.5,97,86,68,30.29,30.18,13,2,15,0.00
2013-1-10,81.9,73.1,66.8,71.8,67.2,63.5,97,83,57,30.29,30.20,10,2,16,0.00
2013-1-11,82.2,71.1,61.5,70.2,65.3,59.4,97,83,63,30.25,30.13,12,2,12,0.00
2013-1-12,83.5,72.4,62.7,68.9,65.4,60.6,96,80,55,30.18,30.07,13,2,13,0.01
2013-1-13,82.3,73.6,65.9,68.6,65.8,64.0,94,78,57,30.15,30.05,12,2,12,0.00
2013-1-14,81.1,74.6,65.5,67.8,65.7,63.5,96,75,56,30.17,30.09,10,2,10,0.01
2013-1-15,81.8,70.8,61.5,69.1,64.5,59.8,97,82,56,30.13,30.03,11,2,11,0.00
2013-1-16,68.4,66.3,64.2,65.4,63.6,62.1,93,91,89,30.05,30.03,7,1,7,0.00
2013-1-17,75.3,61.7,51.7,68.8,56.6,44.7,96,84,73,30.11,29.97,27,8,29,0.03
2013-1-18,65.6,53.9,40.9,55.9,46.9,35.6,84,77,68,30.29,30.11,22,6,22,0.01
2013-1-19,74.5,62.8,53.1,62.2,56.4,48.8,91,80,63,30.28,30.13,16,4,16,0.00
2013-1-20,74.0,64.1,58.6,63.1,58.8,55.3,95,84,67,30.17,30.03,10,2,10,0.00
2013-1-21,76.1,66.3,60.2,63.5,57.8,54.6,88,75,59,30.08,29.97,8,1,9,0.00
2013-1-22,62.8,57.2,46.8,54.5,43.9,37.8,81,62,43,30.27,30.05,13,2,13,0.00
2013-1-23,68.3,55.2,46.3,46.2,40.1,35.3,90,60,30,30.35,30.26,10,1,10,0.00
2013-1-24,73.8,57.0,42.5,53.1,47.8,39.6,93,74,45,30.32,30.20,13,1,13,0.00
2013-1-25,77.7,60.7,47.8,61.1,51.6,46.1,98,75,44,30.30,30.15,9,1,11,0.01
2013-1-26,77.2,60.1,42.6,60.4,52.5,40.6,96,78,49,30.26,30.14,13,1,13,0.00
2013-1-27,78.9,64.3,49.6,64.5,55.8,47.9,95,77,50,30.30,30.20,12,2,12,0.01
2013-1-28,79.8,73.1,66.6,66.5,64.9,63.6,90,76,64,30.32,30.21,16,4,16,0.00
2013-1-29,82.8,71.3,64.1,70.3,65.8,62.3,97,84,57,30.23,30.07,14,3,14,0.00
2013-1-30,83.0,73.4,66.2,66.9,65.6,62.9,94,78,56,30.09,29.86,26,7,26,0.00
2013-1-31,70.6,59.8,50.3,66.1,43.3,30.4,91,57,30,30.19,29.86,28,5,28,0.08
2013-2-1,70.1,66.1,59.0,37.1,34.2,30.7,43,31,25,30.34,30.22,12,3,12,0.00
2013-2-2,73.5,61.5,50.7,46.8,42.5,38.8,74,52,35,30.16,30.12,10,1,10,0.00
2013-2-3,70.3,54.0,40.3,53.0,42.9,35.9,90,68,40,30.18,30.04,19,3,21,0.00
2013-2-4,71.3,54.5,38.1,51.2,41.8,36.0,95,67,34,30.13,30.02,9,0,9,0.00
2013-2-5,78.2,59.6,41.1,55.6,48.6,38.4,95,70,41,30.09,29.97,14,1,18,0.00
2013-2-6,78.7,67.0,55.0,64.1,59.0,51.9,93,77,55,30.10,30.01,8,0,8,0.00
2013-2-7,79.5,71.5,65.0,65.4,63.1,61.3,89,76,59,30.06,29.83,19,4,19,0.00
2013-2-8,79.6,68.0,56.0,65.3,59.9,53.3,91,77,49,30.07,29.86,16,4,16,0.00
2013-2-9,74.3,61.6,49.0,58.5,54.3,47.1,95,79,55,30.19,30.05,12,3,13,0.00
2013-2-10,78.6,67.9,59.0,61.7,58.2,54.5,86,72,53,30.25,30.13,17,4,17,0.00
2013-2-11,82.9,70.6,61.1,64.8,61.9,58.1,93,75,51,30.19,30.04,17,3,17,0.00
2013-2-12,85.5,72.7,62.4,68.3,65.1,60.3,95,79,51,30.08,29.90,14,3,14,0.00
2013-2-13,84.2,71.8,61.7,70.4,66.9,58.6,94,85,61,29.95,29.80,24,5,24,0.04
2013-2-14,66.5,61.8,56.6,60.9,58.4,54.9,94,89,77,30.03,29.90,12,2,12,0.27
2013-2-15,72.3,59.2,52.2,59.0,53.7,50.4,95,84,54,30.08,29.93,12,2,12,0.14
2013-2-16,67.8,55.7,47.4,51.9,45.2,29.5,97,71,45,30.13,29.90,30,6,30,0.02
2013-2-17,54.5,44.6,34.7,31.6,26.0,19.1,77,51,26,30.33,30.13,17,2,17,0.01
2013-2-18,68.5,53.1,35.2,50.2,39.4,25.2,88,62,38,30.36,30.19,16,3,18,0.00
2013-2-19,78.7,63.5,47.0,59.0,53.6,43.6,95,73,47,30.21,30.03,18,2,18,0.00
2013-2-20,76.5,64.7,58.2,61.6,56.8,52.2,95,77,58,30.12,29.99,11,2,11,0.00
2013-2-21,81.8,69.7,55.8,65.8,60.0,52.3,90,73,52,30.09,29.96,10,1,10,0.00
2013-2-22,86.3,74.5,63.7,69.6,66.0,61.3,95,77,50,30.06,29.95,15,2,15,0.00
2013-2-23,87.0,75.8,69.7,69.6,67.7,64.9,94,78,49,29.98,29.85,20,5,21,0.00
2013-2-24,74.8,70.6,66.4,71.1,68.1,64.1,95,92,84,29.94,29.84,11,2,11,0.05
2013-2-25,86.1,73.3,65.0,71.6,66.4,63.2,96,81,52,29.90,29.74,14,2,14,0.01
2013-2-26,75.7,70.2,63.1,71.8,66.2,60.3,94,87,71,29.85,29.70,16,4,17,0.40
2013-2-27,77.2,65.1,55.8,61.3,56.7,49.9,94,76,48,29.95,29.84,15,3,15,0.00
2013-2-28,73.0,64.6,52.9,55.9,50.8,46.8,86,62,43,29.98,29.85,22,6,22,0.00
2013-3-1,65.6,55.1,47.9,47.6,42.4,36.0,85,64,35,29.98,29.88,18,4,18,0.00
2013-3-2,58.4,51.7,44.1,39.6,35.6,31.7,71,55,38,30.02,29.94,33,8,33,0.00
2013-3-3,52.0,43.8,37.1,35.7,32.7,30.3,79,65,51,30.14,29.99,21,5,24,0.00
2013-3-4,66.2,48.9,30.9,40.3,33.1,28.3,98,60,27,30.22,30.09,20,1,20,0.00
2013-3-5,77.0,57.3,42.9,58.4,46.8,36.8,90,71,39,30.16,29.98,19,3,19,0.00
2013-3-6,65.7,57.9,47.6,61.0,42.4,31.6,93,60,29,30.12,29.90,29,8,29,0.00
2013-3-7,67.8,53.1,39.7,45.3,38.9,33.8,81,61,37,30.21,30.10,16,2,16,0.00
2013-3-8,75.3,57.1,38.2,50.3,42.8,35.5,95,65,28,30.21,30.08,14,1,15,0.00
2013-3-9,74.9,61.1,47.3,54.5,50.3,44.8,93,70,41,30.21,30.11,15,2,15,0.00
2013-3-10,79.1,66.7,56.9,59.3,56.2,53.5,90,71,48,30.16,30.04,20,4,20,0.00
2013-3-11,78.0,68.5,59.1,62.2,58.8,54.8,88,72,54,30.09,29.86,16,3,19,0.00
2013-3-12,72.7,65.5,55.4,67.0,61.1,52.8,94,86,76,30.01,29.83,17,6,18,0.18
2013-3-13,75.3,60.2,48.2,52.8,44.1,37.3,92,61,27,30.15,30.00,16,4,18,0.00
2013-3-14,67.8,58.1,44.6,46.2,39.7,32.1,85,55,27,30.25,30.13,17,3,17,0.00
2013-3-15,74.5,63.6,43.9,50.0,42.1,35.1,95,49,31,30.27,30.11,11,2,13,0.00
2013-3-16,81.5,63.9,43.1,52.5,45.5,39.9,93,56,28,30.16,30.00,12,2,13,0.00
2013-3-17,77.8,62.0,44.6,62.9,52.6,41.8,96,73,46,30.12,29.97,13,2,13,0.00
2013-3-18,79.4,71.2,63.1,66.8,63.4,59.5,90,77,60,30.03,29.87,15,4,15,0.01
2013-3-19,89.0,73.3,63.0,66.2,63.3,61.1,95,74,42,30.00,29.85,8,1,8,0.00
2013-3-20,76.6,68.0,58.4,67.1,61.8,55.4,92,81,66,29.94,29.76,16,2,17,0.14
2013-3-21,72.0,58.9,48.2,56.1,44.5,34.2,94,64,27,29.95,29.84,14,3,15,0.01
2013-3-22,80.0,61.0,43.3,63.4,51.0,40.1,94,73,40,30.00,29.86,12,2,12,0.09
2013-3-23,86.8,73.5,63.7,73.0,67.1,61.5,95,82,58,29.96,29.74,20,4,20,0.01
2013-3-24,81.1,73.2,65.5,73.8,68.9,63.1,94,87,74,29.80,29.59,29,7,32,0.92
2013-3-25,71.5,62.8,50.6,64.3,47.3,36.3,93,61,30,30.01,29.68,20,6,20,0.01
2013-3-26,58.8,51.2,42.9,43.8,33.4,27.1,76,52,31,30.22,30.00,27,6,28,0.00
2013-3-27,63.9,50.7,41.1,40.0,35.2,31.8,81,58,31,30.29,30.17,16,3,16,0.00
2013-3-28,73.0,56.1,37.9,46.5,39.3,34.3,96,60,26,30.27,30.14,11,1,11,0.00
2013-3-29,77.0,60.5,41.8,53.6,43.9,38.7,95,60,28,30.30,30.16,10,1,10,0.00
2013-3-30,81.5,64.3,45.1,57.0,49.6,42.3,95,62,38,30.23,30.07,13,2,13,0.00
2013-3-31,82.5,68.3,54.9,59.7,55.4,50.6,91,66,39,30.14,29.95,20,3,20,0.00
2013-4-1,83.3,71.5,62.0,66.3,62.5,56.7,91,75,52,29.99,29.90,24,4,25,0.00
2013-4-2,88.2,72.5,58.6,65.7,60.1,54.6,96,70,35,30.06,29.96,10,1,10,0.00
2013-4-3,85.6,76.5,68.2,68.4,66.2,63.6,94,72,54,30.03,29.91,15,4,16,0.46
2013-4-4,73.4,69.8,66.6,68.6,66.8,64.2,95,90,83,29.99,29.82,26,4,28,0.25
2013-4-5,76.7,68.1,58.5,67.5,62.4,55.1,95,83,54,29.97,29.77,23,5,23,0.02
2013-4-6,78.4,65.4,52.9,61.5,56.5,50.4,93,75,51,30.11,29.97,15,4,15,0.00
2013-4-7,83.4,70.2,59.3,64.2,60.3,56.9,95,73,43,30.13,30.02,12,2,12,0.00
2013-4-8,85.6,73.2,63.9,65.0,62.3,58.9,92,71,43,30.10,30.01,14,2,14,0.00
2013-4-9,85.8,77.3,68.0,68.5,64.6,59.4,91,66,50,30.13,30.05,15,4,17,0.00
2013-4-10,90.5,75.8,62.5,70.7,65.2,59.8,95,73,43,30.09,29.93,13,2,15,0.00
2013-4-11,88.3,80.2,72.6,73.2,71.2,69.7,92,76,56,29.97,29.78,23,6,25,0.24
2013-4-12,84.1,76.8,73.3,74.0,72.1,70.1,94,86,68,29.87,29.77,25,5,30,0.01
2013-4-13,88.8,76.9,67.6,71.8,68.0,58.8,96,76,55,29.95,29.84,10,1,11,0.00
2013-4-14,89.0,76.2,66.2,76.5,68.3,60.6,88,77,60,29.95,29.79,22,3,22,0.18
2013-4-15,90.5,75.3,64.9,70.9,65.5,61.2,90,73,51,30.04,29.87,11,2,11,0.00
2013-4-16,90.3,77.1,68.9,73.6,69.2,65.3,95,78,55,30.12,30.01,12,3,13,0.00
2013-4-17,85.3,75.1,66.9,70.5,67.2,64.5,96,78,52,30.12,30.00,14,3,16,0.00
2013-4-18,91.5,79.0,68.1,72.7,68.4,65.5,94,72,46,30.03,29.90,13,2,13,0.00
2013-4-19,90.8,79.1,71.8,75.6,71.8,66.7,95,80,54,29.97,29.87,22,4,23,0.28
2013-4-20,70.5,62.6,58.6,63.3,58.8,55.4,93,87,77,30.13,29.99,15,4,15,0.00
2013-4-21,79.3,68.4,59.8,71.1,64.6,55.9,95,88,75,30.12,29.99,16,3,16,0.38
2013-4-22,77.7,68.7,64.4,70.4,66.0,61.5,96,91,75,30.05,29.96,17,3,17,0.14
2013-4-23,82.1,71.2,62.4,67.9,62.5,59.6,94,76,49,30.08,29.98,16,4,16,0.00
2013-4-24,91.2,74.3,60.5,66.3,62.0,58.4,98,69,37,30.10,30.01,11,2,11,0.00
2013-4-25,91.0,76.5,61.6,68.8,64.4,59.1,96,69,42,30.16,30.06,9,1,10,0.00
2013-4-26,89.1,76.8,62.3,69.9,65.7,59.6,95,70,49,30.20,30.11,16,2,16,0.00
2013-4-27,86.0,75.6,67.9,69.9,66.7,64.1,95,76,52,30.19,30.05,15,2,15,0.00
2013-4-28,85.5,75.2,66.7,68.4,66.1,64.0,92,75,52,30.10,29.93,18,3,18,0.00
2013-4-29,87.5,81.9,72.8,68.9,67.5,64.5,86,63,51,29.98,29.85,13,2,13,0.00
2013-4-30,92.2,79.2,67.5,72.0,68.7,64.7,95,73,47,29.97,29.86,26,2,27,3.36
2013-5-1,77.9,71.9,68.7,72.2,69.3,67.5,98,92,79,29.98,29.89,13,2,13,0.12
2013-5-2,73.2,69.6,66.5,70.0,67.7,65.0,96,94,88,29.93,29.78,8,2,11,1.45
2013-5-3,83.2,72.4,67.1,71.1,68.0,65.5,96,87,65,29.79,29.66,16,3,18,0.18
2013-5-4,83.0,73.2,68.6,72.1,68.3,65.6,96,86,63,29.75,29.62,17,3,17,0.25
2013-5-5,78.7,68.5,58.2,66.9,55.4,45.0,93,66,39,29.89,29.71,20,5,20,0.01
2013-5-6,75.2,66.9,58.4,59.7,56.4,52.8,92,71,49,29.96,29.84,19,4,19,0.00
2013-5-7,79.9,66.9,54.4,61.7,57.6,52.1,94,74,51,30.00,29.92,18,3,18,0.00
2013-5-8,83.9,70.2,58.8,64.5,60.5,56.8,95,74,49,30.09,29.98,17,2,17,0.00
2013-5-9,90.4,74.3,58.5,67.7,62.9,56.8,96,71,43,30.10,30.02,9,1,9,0.00
2013-5-10,93.5,77.9,64.2,73.1,67.6,61.6,95,73,46,30.09,29.94,13,2,15,0.00
2013-5-11,91.5,79.6,70.6,75.0,70.8,65.6,90,76,54,30.00,29.92,25,3,25,0.11
2013-5-12,89.0,76.6,65.8,73.1,67.8,63.7,95,76,55,29.99,29.90,19,3,19,0.00
2013-5-13,84.8,73.0,62.6,66.2,60.7,51.2,95,69,40,30.09,29.95,15,2,15,0.00
2013-5-14,85.5,70.9,53.2,59.8,54.6,49.1,91,60,33,30.17,30.07,13,1,13,0.00
2013-5-15,88.4,76.9,58.5,65.0,60.6,55.8,95,60,35,30.17,30.03,14,2,14,0.00
2013-5-16,90.2,79.3,67.7,67.6,64.8,61.0,88,63,39,30.09,29.95,13,3,13,0.00
2013-5-17,93.3,78.9,66.0,71.5,66.3,61.8,92,68,41,30.06,29.98,15,2,16,0.00
2013-5-18,96.8,82.2,70.4,74.6,69.8,64.9,92,69,38,30.07,29.94,14,2,17,0.02
2013-5-19,95.6,78.9,72.2,76.1,72.3,69.4,94,82,46,30.04,29.91,16,2,17,1.09
2013-5-20,93.8,79.5,70.9,74.3,70.9,66.3,92,77,50,30.03,29.92,22,2,28,0.22
2013-5-21,90.5,76.9,70.1,74.7,70.9,67.2,95,83,55,29.98,29.89,15,2,17,0.00
2013-5-22,92.4,78.0,71.6,74.9,71.6,69.5,95,82,53,29.92,29.84,17,2,18,0.02
2013-5-23,93.3,84.1,71.9,76.2,72.9,68.5,96,70,54,29.95,29.85,16,2,16,0.00
2013-5-24,94.5,79.8,68.8,74.9,68.4,64.4,96,72,40,30.03,29.91,16,2,18,0.00
2013-5-25,88.0,78.7,71.6,70.4,66.4,61.0,91,67,47,30.14,30.02,15,3,15,0.00
2013-5-26,86.7,75.6,63.2,65.2,61.6,57.7,86,64,40,30.17,30.07,14,2,14,0.00
2013-5-27,89.0,77.2,67.1,68.1,65.3,62.3,91,69,44,30.13,30.03,16,2,16,0.00
2013-5-28,89.3,78.8,69.8,73.3,70.0,65.7,91,76,57,30.10,29.99,19,3,19,0.00
2013-5-29,85.7,78.3,72.4,75.0,72.0,69.4,93,81,63,30.08,30.00,30,4,32,0.00
2013-5-30,87.5,81.1,74.9,76.0,72.3,68.9,90,75,60,30.06,29.97,23,5,27,0.08
2013-5-31,88.0,79.8,72.2,75.1,71.6,69.0,92,77,63,30.05,29.96,21,4,22,0.00
2013-6-1,89.2,80.5,72.9,77.7,73.7,70.5,93,80,65,30.02,29.90,15,3,18,0.00
2013-6-2,96.0,82.0,74.6,77.6,74.7,70.1,96,80,54,29.96,29.80,11,2,20,1.56
2013-6-3,93.8,79.1,72.8,77.6,74.4,71.4,97,87,56,29.94,29.83,13,1,15,0.03
2013-6-4,90.3,77.6,73.5,77.3,73.3,70.5,94,87,63,29.97,29.87,18,2,19,0.01
2013-6-5,82.5,75.6,73.8,76.4,72.4,70.3,94,90,71,29.96,29.84,21,2,27,0.06
2013-6-6,80.3,76.4,74.0,76.0,73.4,71.7,95,91,78,29.85,29.58,25,7,30,1.96
2013-6-7,91.4,76.2,72.2,76.5,72.3,70.3,95,88,60,29.89,29.70,13,3,20,0.00
2013-6-8,95.6,76.9,72.4,78.2,72.4,70.2,96,87,54,30.04,29.89,21,2,22,0.87
2013-6-9,93.0,85.7,78.7,78.2,76.3,73.6,90,75,60,30.04,29.95,14,3,14,0.00
2013-6-10,99.5,83.2,76.0,77.4,74.7,72.0,95,77,46,30.04,29.94,16,2,16,0.00
2013-6-11,95.6,79.1,73.7,80.3,74.2,68.2,95,86,57,30.02,29.95,19,1,19,0.15
2013-6-12,96.8,82.8,72.1,78.0,74.5,70.5,97,78,51,30.02,29.92,13,1,13,0.17
2013-6-13,95.6,84.3,73.1,78.0,74.4,71.1,94,74,56,29.97,29.83,13,2,13,0.00
2013-6-14,92.0,80.9,74.3,76.4,73.9,70.7,94,81,54,29.88,29.78,16,3,16,0.00
2013-6-15,87.1,79.2,75.9,80.1,75.3,72.9,94,88,73,30.00,29.84,13,1,13,0.13
2013-6-16,98.3,83.0,75.4,80.0,75.9,73.1,95,80,51,30.02,29.94,14,2,16,0.52
2013-6-17,98.9,85.2,73.6,80.5,76.3,71.4,95,77,48,30.01,29.90,26,2,26,1.56
2013-6-18,96.8,82.8,73.6,79.4,75.1,71.8,96,79,53,30.00,29.89,15,2,15,0.00
2013-6-19,95.8,87.3,80.8,79.0,76.5,71.7,81,71,55,29.97,29.89,16,2,16,0.00
2013-6-20,98.0,84.0,72.1,79.0,74.5,69.8,95,75,52,30.04,29.93,22,2,24,0.86
2013-6-21,96.2,78.4,70.3,78.5,73.1,69.1,97,86,54,30.05,29.97,14,1,15,0.11
2013-6-22,96.8,80.5,72.9,78.0,73.9,69.7,96,82,51,30.06,29.98,25,1,25,1.25
2013-6-23,94.5,86.3,79.3,78.1,76.0,74.3,87,72,56,30.08,30.02,14,3,14,0.00
2013-6-24,96.2,84.3,76.5,77.9,75.3,74.0,93,76,52,30.12,30.00,13,2,16,0.00
2013-6-25,94.4,83.6,76.4,77.3,74.8,71.5,93,76,50,30.08,29.96,11,2,12,0.00
2013-6-26,97.9,85.8,74.9,78.5,74.7,70.8,91,72,48,30.01,29.93,18,2,18,0.00
2013-6-27,96.0,79.8,71.6,77.7,73.5,69.4,95,82,54,29.98,29.86,13,1,13,0.00
2013-6-28,93.1,82.2,74.4,78.4,75.0,70.3,94,80,57,29.90,29.77,20,4,21,0.24
2013-6-29,90.6,80.5,76.3,78.1,75.1,72.7,94,84,63,29.81,29.72,17,5,17,0.00
2013-6-30,91.8,78.7,75.0,78.5,74.5,70.5,93,88,62,29.81,29.74,20,5,20,0.18
2013-7-1,84.1,76.9,73.6,76.7,73.4,71.4,94,89,76,29.95,29.79,19,6,20,0.30
2013-7-2,86.1,77.9,73.7,79.3,74.0,71.2,95,88,74,30.02,29.90,19,4,19,0.04
2013-7-3,91.1,79.5,74.4,78.3,74.8,72.2,95,86,63,30.06,29.98,16,3,18,0.16
2013-7-4,90.3,79.7,72.5,78.1,74.1,70.5,94,84,62,30.09,30.00,23,3,23,0.38
2013-7-5,91.0,79.7,72.5,78.5,74.9,70.7,96,86,63,30.08,29.99,22,2,31,0.45
2013-7-6,87.9,80.0,75.1,77.0,74.9,73.0,94,85,67,30.05,29.96,14,2,15,0.00
2013-7-7,80.2,77.5,75.4,75.4,74.3,73.2,94,90,85,30.04,30.00,8,1,11,0.00
2013-7-8,93.3,87.3,76.6,78.2,75.9,73.8,94,70,56,30.09,30.00,13,2,13,0.00
2013-7-9,93.2,84.1,75.1,77.3,73.9,70.4,94,73,51,30.10,29.98,13,2,13,0.00
2013-7-10,97.6,83.5,73.1,78.4,74.0,71.0,96,75,46,30.02,29.88,18,2,18,0.00
2013-7-11,94.5,82.4,75.9,76.7,74.3,72.5,92,78,53,29.96,29.84,11,3,12,0.00
2013-7-12,77.4,76.0,73.8,74.2,72.9,71.5,94,90,88,29.88,29.83,6,1,6,0.00
2013-7-13,92.4,78.9,75.1,76.3,73.9,72.5,93,86,58,29.91,29.83,15,7,15,0.03
2013-7-14,94.2,80.0,74.5,78.4,74.5,72.3,94,84,57,30.01,29.89,16,9,16,0.01
2013-7-15,91.6,78.2,73.1,76.8,74.0,71.3,95,88,58,30.04,29.94,16,5,16,0.16
2013-7-16,89.1,78.2,74.4,77.4,74.1,71.2,95,88,65,30.09,30.02,20,2,20,0.77
2013-7-17,91.8,79.9,75.2,78.1,74.9,72.9,96,86,61,30.09,30.00,19,2,22,0.03
2013-7-18,89.7,78.2,74.1,76.9,73.4,71.5,95,86,61,30.05,29.96,18,2,20,0.00
2013-7-19,91.4,79.1,73.7,78.3,73.5,71.1,94,84,60,30.06,29.95,18,3,18,0.75
2013-7-20,94.9,79.6,74.0,79.3,74.5,71.5,94,85,59,30.03,29.94,18,2,23,0.07
2013-7-21,97.8,80.7,72.3,80.8,74.9,70.6,96,84,52,30.04,29.94,13,2,13,0.01
2013-7-22,94.8,82.1,75.3,80.0,75.9,73.2,95,82,58,30.04,29.98,15,2,15,0.12
2013-7-23,83.8,76.8,73.6,77.7,74.3,70.7,95,92,75,30.02,29.88,25,2,25,0.53
2013-7-24,87.1,80.2,74.6,78.8,75.9,72.8,96,87,73,29.91,29.80,17,3,20,0.08
2013-7-25,86.0,79.2,73.0,78.9,75.6,70.7,96,89,77,29.91,29.78,20,2,20,0.34
2013-7-26,97.5,82.2,74.2,80.3,75.6,72.6,97,82,53,29.93,29.86,8,0,9,0.00
2013-7-27,94.7,83.5,74.5,79.4,75.4,71.5,97,78,54,29.92,29.81,12,1,12,0.00
2013-7-28,96.2,80.2,73.7,78.9,74.3,71.9,96,83,54,29.98,29.85,13,1,19,0.00
2013-7-29,100.7,85.2,72.3,79.7,75.0,70.5,96,74,43,30.07,29.94,19,1,22,0.00
2013-7-30,99.2,85.2,74.0,79.3,75.6,71.8,96,75,45,30.09,29.98,16,1,17,0.00
2013-7-31,98.5,83.8,73.4,79.6,75.9,70.4,96,79,49,30.06,29.92,15,1,15,0.12
2013-8-1,95.4,81.8,75.1,77.5,75.0,72.4,96,81,49,29.99,29.87,11,2,12,0.03
2013-8-2,98.6,83.1,73.5,78.6,74.7,71.4,97,78,48,29.95,29.86,17,1,17,0.39
2013-8-3,95.3,80.9,74.8,80.1,75.4,72.3,95,85,56,30.01,29.91,17,2,17,0.66
2013-8-4,94.2,80.7,75.4,80.4,76.8,73.9,96,88,62,30.00,29.90,17,1,18,0.07
2013-8-5,93.3,83.2,75.6,80.8,77.2,72.1,96,83,61,29.93,29.82,16,2,16,0.00
2013-8-6,88.0,78.9,74.4,78.5,74.8,71.9,94,88,70,29.90,29.81,7,0,9,0.00
2013-8-7,95.9,83.9,78.4,79.8,77.2,74.5,94,82,57,29.89,29.83,16,1,16,0.18
2013-8-8,89.5,84.9,81.2,78.2,76.5,75.4,85,76,66,29.96,29.87,10,2,12,0.00
2013-8-9,81.2,80.5,79.9,76.6,76.3,76.0,89,87,85,29.95,29.93,8,2,8,0.00